Location: Saint-Hippolyte
(43.6394°N, 4.7559°E)
Time: 15:19:47
(UTC+00:00)

YAOGAN 1 - Pass Details

Date: 24 October 2020
Orbit: 618 x 620 km, 97.9° (Epoch: 23 November)

Event Time Altitude Azimuth Distance (km) Brightness Sun altitude
Rises 17:25:06 0° 134° (SE) 2,887 5.6 -8.3°
Reaches altitude 10° 17:27:34 10° 121° (ESE) 1,986 4.7 -8.8°
Maximum altitude 17:31:05 25° 67° (ENE) 1,265 3.6 -9.4°
Drops below altitude 10° 17:34:37 10° 12° (NNE) 1,997 5.0 -10.0°
Sets 17:37:06 0° 359° (N) 2,908 5.9 -10.5°
